Volver al catálogo

MINOTAUR 4 R/B

ActivoVLEO
NORAD 45877·ROCKET BODY·🇺🇸 United States

Lanzado Jul 15, 2020 desde Wallops Flight Facility

Loading…

Próximos Pases (próximas 24 horas)

TLE

ActualizadoSource: Space-Track

Época: Sep 14, 2026, 05:07 UTC

1 45877U 20046E   26257.21324291  .00001195  00000-0  97206-4 0  9993
2 45877  53.9782 198.5922 0005610 225.1879 134.8667 15.07174295262342

Sigue MINOTAUR 4 R/B en tiempo real con AllMySat

Download on the App Store